Time,TemperatureF,DewpointF,PressureIn,WindDirection,WindDirectionDegrees,WindSpeedMPH,WindSpeedGustMPH,Humidity,HourlyPrecipIn,Conditions,Clouds,dailyrainin,SoftwareType,DateUTC
2013-07-16 00:08:00,52.5,49.0,29.82,NW,322,2.0,2.0,89,0.00,,,0.00,weatherlink.com 1.10,2013-07-16 06:08:00,
2013-07-16 00:23:00,52.3,50.0,29.82,NW,322,0.0,0.0,90,0.00,,,0.00,weatherlink.com 1.10,2013-07-16 06:23:00,
2013-07-16 00:49:00,51.4,49.0,29.82,WNW,300,0.0,0.0,91,0.00,,,0.00,weatherlink.com 1.10,2013-07-16 06:49:00,
2013-07-16 01:08:00,51.1,49.0,29.82,SSE,148,0.0,0.0,93,0.00,,,0.00,weatherlink.com 1.10,2013-07-16 07:08:00,
2013-07-16 01:23:00,51.0,49.0,29.82,SSE,148,0.0,0.0,94,0.00,,,0.00,weatherlink.com 1.10,2013-07-16 07:23:00,
2013-07-16 01:38:00,51.3,50.0,29.82,SSE,148,0.0,0.0,94,0.00,,,0.00,weatherlink.com 1.10,2013-07-16 07:38:00,
2013-07-16 01:53:00,51.4,50.0,29.82,North,351,0.0,0.0,93,0.00,,,0.00,weatherlink.com 1.10,2013-07-16 07:53:00,
2013-07-16 02:08:00,51.1,49.0,29.82,North,352,0.0,0.0,93,0.00,,,0.00,weatherlink.com 1.10,2013-07-16 08:08:00,
2013-07-16 02:23:00,50.5,49.0,29.82,North,352,0.0,0.0,93,0.00,,,0.00,weatherlink.com 1.10,2013-07-16 08:23:00,
2013-07-16 02:38:00,49.5,48.0,29.82,North,352,0.0,0.0,94,0.00,,,0.00,weatherlink.com 1.10,2013-07-16 08:38:00,
2013-07-16 02:53:00,48.5,47.0,29.82,North,353,0.0,0.0,94,0.00,,,0.00,weatherlink.com 1.10,2013-07-16 08:53:00,
2013-07-16 03:08:00,47.5,46.0,29.83,SE,126,0.0,0.0,94,0.00,,,0.00,weatherlink.com 1.10,2013-07-16 09:08:00,
2013-07-16 03:23:00,47.4,46.0,29.82,SE,124,0.0,0.0,95,0.00,,,0.00,weatherlink.com 1.10,2013-07-16 09:23:00,
2013-07-16 03:38:00,47.6,46.0,29.83,South,172,4.0,4.0,95,0.00,,,0.00,weatherlink.com 1.10,2013-07-16 09:38:00,
2013-07-16 03:53:00,47.7,46.0,29.82,SE,131,4.0,5.0,94,0.00,,,0.00,weatherlink.com 1.10,2013-07-16 09:53:00,
2013-07-16 04:08:00,47.3,45.0,29.82,SSE,161,1.0,5.0,93,0.00,,,0.00,weatherlink.com 1.10,2013-07-16 10:08:00,
2013-07-16 04:23:00,46.7,45.0,29.82,SE,125,0.0,2.0,92,0.00,,,0.00,weatherlink.com 1.10,2013-07-16 10:23:00,
2013-07-16 04:38:00,46.3,44.0,29.82,SSE,155,3.0,6.0,93,0.00,,,0.00,weatherlink.com 1.10,2013-07-16 10:38:00,
2013-07-16 04:53:00,46.8,45.0,29.82,ESE,107,1.0,4.0,94,0.00,,,0.00,weatherlink.com 1.10,2013-07-16 10:53:00,
2013-07-16 05:08:00,47.1,45.0,29.82,South,187,4.0,5.0,93,0.00,,,0.00,weatherlink.com 1.10,2013-07-16 11:08:00,
2013-07-16 05:24:00,47.0,45.0,29.83,South,170,4.0,6.0,93,0.00,,,0.00,weatherlink.com 1.10,2013-07-16 11:24:00,
2013-07-16 05:39:00,47.1,45.0,29.84,SE,136,3.0,5.0,93,0.00,,,0.00,weatherlink.com 1.10,2013-07-16 11:39:00,
2013-07-16 05:54:00,47.1,45.0,29.84,ESE,115,3.0,5.0,93,0.00,,,0.00,weatherlink.com 1.10,2013-07-16 11:54:00,
2013-07-16 06:09:00,47.1,45.0,29.85,SE,131,2.0,5.0,93,0.00,,,0.00,weatherlink.com 1.10,2013-07-16 12:09:00,
2013-07-16 06:24:00,47.3,45.0,29.85,SSE,151,2.0,5.0,93,0.00,,,0.00,weatherlink.com 1.10,2013-07-16 12:24:00,
2013-07-16 06:39:00,47.5,45.0,29.85,SSE,163,3.0,4.0,92,0.00,,,0.00,weatherlink.com 1.10,2013-07-16 12:39:00,
2013-07-16 06:54:00,48.1,46.0,29.86,SSE,154,3.0,4.0,91,0.00,,,0.00,weatherlink.com 1.10,2013-07-16 12:54:00,
2013-07-16 07:09:00,48.9,46.0,29.86,ESE,108,0.0,2.0,90,0.00,,,0.00,weatherlink.com 1.10,2013-07-16 13:09:00,
2013-07-16 07:24:00,49.4,46.0,29.86,SE,129,0.0,0.0,88,0.00,,,0.00,weatherlink.com 1.10,2013-07-16 13:24:00,
2013-07-16 07:39:00,49.7,46.0,29.86,ESE,105,0.0,0.0,88,0.00,,,0.00,weatherlink.com 1.10,2013-07-16 13:39:00,
2013-07-16 07:54:00,50.0,47.0,29.86,ESE,123,3.0,5.0,89,0.00,,,0.00,weatherlink.com 1.10,2013-07-16 13:54:00,
2013-07-16 08:09:00,50.3,47.0,29.87,SE,129,3.0,5.0,87,0.00,,,0.00,weatherlink.com 1.10,2013-07-16 14:09:00,
2013-07-16 08:24:00,50.9,47.0,29.87,SSE,148,3.0,5.0,87,0.00,,,0.00,weatherlink.com 1.10,2013-07-16 14:24:00,
2013-07-16 08:39:00,52.0,48.0,29.88,South,169,3.0,6.0,86,0.00,,,0.00,weatherlink.com 1.10,2013-07-16 14:39:00,
2013-07-16 08:54:00,52.8,48.0,29.87,East,95,2.0,5.0,84,0.00,,,0.00,weatherlink.com 1.10,2013-07-16 14:54:00,
2013-07-16 09:09:00,55.9,48.0,29.86,SE,136,1.0,2.0,75,0.00,,,0.00,weatherlink.com 1.10,2013-07-16 15:09:00,
2013-07-16 09:24:00,55.7,49.0,29.86,East,84,3.0,4.0,77,0.00,,,0.00,weatherlink.com 1.10,2013-07-16 15:24:00,
2013-07-16 09:39:00,55.7,49.0,29.85,ESE,122,0.0,0.0,77,0.00,,,0.00,weatherlink.com 1.10,2013-07-16 15:39:00,
2013-07-16 09:54:00,57.7,49.0,29.84,East,101,2.0,2.0,74,0.00,,,0.00,weatherlink.com 1.10,2013-07-16 15:54:00,
2013-07-16 10:09:00,59.2,51.0,29.83,ENE,66,0.0,4.0,74,0.00,,,0.00,weatherlink.com 1.10,2013-07-16 16:09:00,
2013-07-16 10:24:00,61.4,50.0,29.83,ENE,76,2.0,4.0,66,0.00,,,0.00,weatherlink.com 1.10,2013-07-16 16:24:00,
2013-07-16 10:39:00,62.6,49.0,29.82,NE,48,2.0,4.0,62,0.00,,,0.00,weatherlink.com 1.10,2013-07-16 16:39:00,
2013-07-16 10:54:00,62.9,49.0,29.82,East,92,0.0,4.0,61,0.00,,,0.00,weatherlink.com 1.10,2013-07-16 16:54:00,
2013-07-16 11:09:00,63.1,48.0,29.82,SE,127,3.0,6.0,59,0.00,,,0.00,weatherlink.com 1.10,2013-07-16 17:09:00,
2013-07-16 11:24:00,63.6,48.0,29.82,SSW,204,1.0,5.0,58,0.00,,,0.00,weatherlink.com 1.10,2013-07-16 17:24:00,
2013-07-16 11:39:00,65.8,49.0,29.81,ESE,108,2.0,5.0,54,0.00,,,0.00,weatherlink.com 1.10,2013-07-16 17:39:00,
2013-07-16 11:54:00,65.7,48.0,29.81,East,95,3.0,4.0,53,0.00,,,0.00,weatherlink.com 1.10,2013-07-16 17:54:00,
2013-07-16 12:09:00,68.7,48.0,29.80,South,174,1.0,7.0,48,0.00,,,0.00,weatherlink.com 1.10,2013-07-16 18:09:00,
2013-07-16 12:24:00,68.1,47.0,29.80,SE,131,3.0,12.0,47,0.00,,,0.00,weatherlink.com 1.10,2013-07-16 18:24:00,
2013-07-16 12:39:00,66.9,48.0,29.80,South,179,3.0,8.0,50,0.00,,,0.00,weatherlink.com 1.10,2013-07-16 18:39:00,
2013-07-16 12:54:00,68.0,46.0,29.80,ESE,122,5.0,9.0,45,0.00,,,0.00,weatherlink.com 1.10,2013-07-16 18:54:00,
2013-07-16 13:10:00,70.0,46.0,29.79,ESE,115,3.0,8.0,43,0.00,,,0.00,weatherlink.com 1.10,2013-07-16 19:10:00,
2013-07-16 13:25:00,71.3,46.0,29.79,SSW,204,5.0,9.0,40,0.00,,,0.00,weatherlink.com 1.10,2013-07-16 19:25:00,
2013-07-16 13:40:00,69.9,44.0,29.80,ENE,58,8.0,16.0,40,0.00,,,0.00,weatherlink.com 1.10,2013-07-16 19:40:00,
2013-07-16 13:55:00,69.0,44.0,29.79,East,89,9.0,14.0,40,0.00,,,0.00,weatherlink.com 1.10,2013-07-16 19:55:00,
2013-07-16 14:10:00,71.1,43.0,29.79,ESE,123,6.0,8.0,37,0.00,,,0.00,weatherlink.com 1.10,2013-07-16 20:10:00,
2013-07-16 14:25:00,70.4,42.0,29.79,ESE,117,9.0,18.0,36,0.00,,,0.00,weatherlink.com 1.10,2013-07-16 20:25:00,
2013-07-16 14:40:00,71.0,44.0,29.78,SE,124,8.0,15.0,38,0.00,,,0.00,weatherlink.com 1.10,2013-07-16 20:40:00,
2013-07-16 14:55:00,71.8,45.0,29.78,ESE,122,6.0,17.0,38,0.00,,,0.00,weatherlink.com 1.10,2013-07-16 20:55:00,
2013-07-16 15:10:00,70.8,41.0,29.78,ENE,70,6.0,12.0,34,0.00,,,0.00,weatherlink.com 1.10,2013-07-16 21:10:00,
2013-07-16 15:25:00,71.3,43.0,29.78,East,98,8.0,12.0,36,0.00,,,0.00,weatherlink.com 1.10,2013-07-16 21:25:00,
2013-07-16 15:40:00,72.4,44.0,29.77,East,100,10.0,11.0,36,0.00,,,0.00,weatherlink.com 1.10,2013-07-16 21:40:00,
2013-07-16 15:55:00,70.8,41.0,29.76,ESE,114,16.0,16.0,34,0.00,,,0.00,weatherlink.com 1.10,2013-07-16 21:55:00,
2013-07-16 16:10:00,72.3,42.0,29.76,East,93,7.0,14.0,34,0.00,,,0.00,weatherlink.com 1.10,2013-07-16 22:10:00,
2013-07-16 16:25:00,71.2,42.0,29.77,ENE,63,11.0,15.0,35,0.00,,,0.00,weatherlink.com 1.10,2013-07-16 22:25:00,
2013-07-16 16:40:00,72.3,44.0,29.77,ENE,69,12.0,22.0,36,0.00,,,0.00,weatherlink.com 1.10,2013-07-16 22:40:00,
2013-07-16 16:55:00,71.8,43.0,29.76,SE,127,9.0,17.0,36,0.00,,,0.00,weatherlink.com 1.10,2013-07-16 22:55:00,
2013-07-16 17:10:00,71.5,44.0,29.77,East,91,10.0,20.0,37,0.00,,,0.00,weatherlink.com 1.10,2013-07-16 23:10:00,
2013-07-16 17:25:00,70.5,44.0,29.76,SE,145,15.0,20.0,38,0.00,,,0.00,weatherlink.com 1.10,2013-07-16 23:25:00,
2013-07-16 17:40:00,69.3,43.0,29.77,SE,140,17.0,19.0,39,0.00,,,0.00,weatherlink.com 1.10,2013-07-16 23:40:00,
2013-07-16 17:55:00,69.3,42.0,29.77,ESE,120,14.0,21.0,38,0.00,,,0.00,weatherlink.com 1.10,2013-07-16 23:55:00,
2013-07-16 18:10:00,69.8,42.0,29.77,SSE,151,11.0,17.0,37,0.00,,,0.00,weatherlink.com 1.10,2013-07-17 00:10:00,
2013-07-16 18:25:00,69.3,40.0,29.77,SE,134,11.0,18.0,35,0.00,,,0.00,weatherlink.com 1.10,2013-07-17 00:25:00,
2013-07-16 18:40:00,69.8,40.0,29.77,SE,125,8.0,16.0,34,0.00,,,0.00,weatherlink.com 1.10,2013-07-17 00:40:00,
2013-07-16 18:55:00,69.2,40.0,29.78,SE,127,12.0,17.0,34,0.00,,,0.00,weatherlink.com 1.10,2013-07-17 00:55:00,
2013-07-16 19:10:00,67.8,38.0,29.78,SE,125,12.0,17.0,34,0.00,,,0.00,weatherlink.com 1.10,2013-07-17 01:10:00,
2013-07-16 19:25:00,66.3,39.0,29.80,ESE,117,12.0,16.0,37,0.00,,,0.00,weatherlink.com 1.10,2013-07-17 01:25:00,
2013-07-16 19:40:00,65.1,39.0,29.80,ESE,120,13.0,15.0,39,0.00,,,0.00,weatherlink.com 1.10,2013-07-17 01:40:00,
2013-07-16 19:55:00,64.3,40.0,29.81,SE,125,6.0,9.0,41,0.00,,,0.00,weatherlink.com 1.10,2013-07-17 01:55:00,
2013-07-16 20:10:00,63.7,40.0,29.82,ESE,122,4.0,8.0,42,0.00,,,0.00,weatherlink.com 1.10,2013-07-17 02:10:00,
2013-07-16 20:25:00,63.0,40.0,29.83,East,98,5.0,7.0,43,0.00,,,0.00,weatherlink.com 1.10,2013-07-17 02:25:00,
2013-07-16 20:40:00,60.7,42.0,29.83,SSE,161,1.0,3.0,50,0.00,,,0.00,weatherlink.com 1.10,2013-07-17 02:40:00,
2013-07-16 20:55:00,59.0,42.0,29.84,ESE,103,0.0,1.0,53,0.00,,,0.00,weatherlink.com 1.10,2013-07-17 02:55:00,
2013-07-16 21:10:00,58.1,41.0,29.85,WSW,240,0.0,1.0,54,0.00,,,0.00,weatherlink.com 1.10,2013-07-17 03:10:00,
2013-07-16 21:25:00,57.5,41.0,29.86,East,94,4.0,4.0,55,0.00,,,0.00,weatherlink.com 1.10,2013-07-17 03:25:00,
2013-07-16 21:40:00,58.6,41.0,29.87,SSE,147,2.0,2.0,53,0.00,,,0.00,weatherlink.com 1.10,2013-07-17 03:40:00,
2013-07-16 21:55:00,56.8,41.0,29.88,SSW,198,2.0,3.0,57,0.00,,,0.00,weatherlink.com 1.10,2013-07-17 03:55:00,
2013-07-16 22:10:00,56.4,42.0,29.89,ESE,117,0.0,2.0,58,0.00,,,0.00,weatherlink.com 1.10,2013-07-17 04:10:00,
2013-07-16 22:25:00,55.5,42.0,29.89,ENE,70,1.0,3.0,60,0.00,,,0.00,weatherlink.com 1.10,2013-07-17 04:25:00,
2013-07-16 22:40:00,54.2,42.0,29.90,ENE,64,0.0,1.0,63,0.00,,,0.00,weatherlink.com 1.10,2013-07-17 04:40:00,
2013-07-16 22:55:00,53.7,42.0,29.91,NW,304,0.0,2.0,65,0.00,,,0.00,weatherlink.com 1.10,2013-07-17 04:55:00,
2013-07-16 23:10:00,53.4,42.0,29.91,NW,305,0.0,1.0,66,0.00,,,0.00,weatherlink.com 1.10,2013-07-17 05:10:00,
2013-07-16 23:25:00,51.8,43.0,29.92,West,267,2.0,2.0,71,0.00,,,0.00,weatherlink.com 1.10,2013-07-17 05:25:00,
2013-07-16 23:40:00,53.5,42.0,29.93,West,278,0.0,0.0,66,0.00,,,0.00,weatherlink.com 1.10,2013-07-17 05:40:00,
2013-07-16 23:55:00,52.6,43.0,29.93,NW,309,0.0,3.0,70,0.00,,,0.00,weatherlink.com 1.10,2013-07-17 05:55:00,